Location: Bonny Doon Airfield
(37.0704°N, 122.1252°W)
Time: 04:23:27
(UTC-07:00)

Hubble Space Telescope - Pass Details

Date: 10 October 2017
Orbit: 537 x 541 km, 28.5° (Epoch: 23 October)

Event Time Altitude Azimuth Distance (km) Brightness Sun altitude
Exits shadow 05:19:01 16° 170° (S) 1,449 2.9 -23.3°
Drops below altitude 10° 05:20:36 10° 149° (SSE) 1,785 3.7 -23.0°
Sets 05:23:24 0° 131° (SE) 2,675 4.9 -22.4°
